Location: Star Hoppers Observatory
(42.7905°N, 83.6127°W)
Time: 18:28:08
(UTC-04:00)

NOSS 3-1 (A) - Visible Passes

Search period start: 26 September 2016 00:00
Search period end: 06 October 2016 00:00
Orbit: 853 x 1360 km, 63.4° (Epoch: 22 September)

Date Brightness Start Highest point End Pass type
(mag) Time Alt. Az. Time Alt. Az. Time Alt. Az.
26 Sep 5.4 03:02:06 24° NNE 03:02:06 24° NNE 03:04:54 10° NNE visible
26 Sep 5.4 04:49:32 15° NW 04:51:16 17° NNW 04:55:36 10° NNE visible
26 Sep 5.9 06:41:53 10° NNW 06:45:26 14° N 06:49:11 10° NE visible
27 Sep 5.9 02:18:46 17° NNE 02:18:46 17° NNE 02:20:12 10° NNE visible
27 Sep 5.3 04:06:12 21° NNW 04:06:12 21° NNW 04:10:52 10° NNE visible
27 Sep 5.8 05:56:36 10° NNW 05:59:46 13° N 06:03:06 10° NNE visible
28 Sep 5.4 03:22:51 23° N 03:22:51 23° N 03:26:13 10° NNE visible
28 Sep 5.8 05:10:53 10° NW 05:14:07 14° N 05:17:31 10° NNE visible
28 Sep 5.9 07:03:32 10° NNW 07:08:17 18° NNE 07:13:21 10° ENE visible
29 Sep 5.8 02:39:30 19° NNE 02:39:30 19° NNE 02:41:36 10° NNE visible
29 Sep 5.6 04:26:56 14° NNW 04:28:30 15° NNW 04:32:24 10° NNE visible
29 Sep 5.9 06:18:45 10° NNW 06:22:44 15° NNE 06:26:55 10° NE visible
30 Sep 6.1 01:56:09 14° NNE 01:56:09 14° NNE 01:56:56 10° NNE visible
30 Sep 5.6 03:43:35 18° NNW 03:43:35 18° NNW 03:47:35 10° NNE visible
30 Sep 5.9 05:33:44 10° NNW 05:37:05 14° N 05:40:37 10° NE visible
01 Oct 5.8 03:00:13 19° N 03:00:13 19° N 03:02:54 10° NNE visible
01 Oct 5.9 04:48:17 10° NNW 04:51:25 13° N 04:54:43 10° NNE visible
01 Oct 5.9 06:40:13 10° NNW 06:45:29 21° NNE 06:51:07 10° ENE visible
02 Oct 6.0 02:16:51 15° NNE 02:16:51 15° NNE 02:18:17 10° NNE visible
02 Oct 5.8 04:04:17 13° NNW 04:05:46 14° N 04:09:20 10° NNE visible
02 Oct 5.9 05:55:33 10° NNW 05:59:59 17° NNE 06:04:42 10° ENE visible
03 Oct 6.3 01:33:29 11° NNE 01:33:29 11° NNE 01:33:38 10° NNE visible
03 Oct 5.8 03:20:56 16° N 03:20:56 16° N 03:24:21 10° NNE visible
03 Oct 6.0 05:10:41 10° NNW 05:14:23 15° NNE 05:18:17 10° NE visible
03 Oct 5.6 07:01:27 10° NNW 07:07:53 32° NE 07:14:53 10° E visible
04 Oct 6.0 02:37:34 16° N 02:37:34 16° N 02:39:36 10° NNE visible
04 Oct 6.0 04:25:31 10° NNW 04:28:43 13° N 04:32:06 10° NNE visible
04 Oct 5.8 06:16:52 10° NNW 06:22:37 24° NNE 06:28:49 10° E visible
05 Oct 6.2 01:54:13 12° NNE 01:54:13 12° NNE 01:54:57 10° NNE visible
05 Oct 6.0 03:41:39 13° NNW 03:43:04 13° N 03:46:24 10° NNE visible
05 Oct 6.0 05:32:16 10° NNW 05:37:12 19° NNE 05:42:29 10° ENE visible
